Regional Weather Roundup
Issued by NWS Grand Forks, ND

Home | Current Version | Previous Version | Text Only | Print | Product List | Glossary On
Versions: 1 2 3 4 5 6 7 8 9 10 11 12 13 14 15 16 17 18 19 20 21 22 23 24 25 26 27 28 29 30 31 32 33 34 35 36 37 38 39 40 41 42 43 44 45 46 47 48 49 50
000
ASUS43 KFGF 301731
RWRFGF
PRAIRIE TO PINES  WEATHER ROUNDUP
NATIONAL WEATHER SERVICE EASTERN NORTH DAKOTA/GRAND FORKS ND
1200 PM CDT SAT MAY 30 2015

 **SATELLITE DATA USED TO AUGMENT SKY COVER AT AUTOMATED STATIONS**
 *****  WEATHER ACROSS EASTERN NORTH DAKOTA  *****

CITY           SKY/WX    TMP DP  RH WIND       PRES   REMARKS
GRAND FORKS    MOSUNNY   47  29  49 NE16      30.41S
GRAND FRKS AFB SUNNY     48  27  43 NE12G17   30.41S
GRAND FRKS NWS   N/A     46 N/A N/A VRB14       N/A
DEVILS LAKE    SUNNY     45  25  45 NE10      30.40S
FARGO          SUNNY     48  34  58 N12G22    30.38S
WAHPETON ARPT  SUNNY     46  34  61 N10G21    30.36S
$$

 ***** WEATHER ACROSS CENTRAL AND WESTERN NORTH DAKOTA  *****

CITY           SKY/WX    TMP DP  RH WIND       PRES   REMARKS
BISMARCK       MOSUNNY   50  31  48 E12       30.38F
MINOT          MOSUNNY   50  29  44 E15G24    30.37F
JAMESTOWN      SUNNY     46  31  55 N6G16     30.38F
MINOT AFB      MOSUNNY   51  32  48 SE10      30.36F
GARRISON         N/A     50  31  48 E15       30.35F
WILLISTON      SUNNY     56  35  45 SE15G23   30.27F
DICKINSON      MOSUNNY   53  36  52 SE18      30.27F
HETTINGER      MOSUNNY   53  38  56 SE16G23   30.28F
$$

 *****  OTHER AIRPORT OBSERVATIONS IN OUR AREA  *****

CITY           SKY/WX    TMP DP  RH WIND       PRES   REMARKS
WALHALLA         N/A     45  27  49 MISG      30.43F
GRAFTON AIRPOR FAIR      45  30  57 NE9       30.43F
VALLEY CITY AR FAIR      46  32  57 NE12      30.38F
CANDO          FAIR      46  23  39 E6        30.41F
CAVALIER APRT  FAIR      45  32  61 N7G23     30.43F
GWINNER        NOT AVBL
SHEYENNE NWR     N/A     48  32  53 N9        29.95S
ROLLA          FAIR      43  25  49 E9        30.41F
 ***** THE ABOVE OBSERVATIONS ARE NON NWS ARE NOT QUALITY
       CONTROLLED AND MAY MIS-REPORT RAIN FOR SNOW...
$$

  *****  WEATHER ACROSS NORTHERN MINNESOTA  *****

CITY           SKY/WX    TMP DP  RH WIND       PRES   REMARKS
FLAG ISLAND    SUNNY     43  27  52 NE6       30.39S
WARROAD        SUNNY     45  32  61 E7        30.41R
ROSEAU         SUNNY     46  28  49 CALM      30.40R
HALLOCK        SUNNY     46  28  49 E7        30.41F
THF RVR FALLS  SUNNY     45  28  53 N9        30.39F
BAUDETTE       SUNNY     46  29  51 N12       30.37F
WASKISH        SUNNY     48  34  57 N9        30.37S
CROOKSTON      SUNNY     48  28  46 E7        30.40S
STEPHEN NDAWN    N/A     46  30  53 N7          N/A
GREENBUSH NDAW   N/A     45  30  57 NE6         N/A
$$
  *****  WEATHER ACROSS CENTRAL AND WEST MINNESOTA  *****

CITY           SKY/WX    TMP DP  RH WIND       PRES   REMARKS
FOSSTON        SUNNY     46  37  71 CALM      30.36F
BEMIDJI        SUNNY     47  29  49 N8        30.35S
PARK RAPIDS    SUNNY     49  29  46 VRB6      30.32S
ELBOW LAKE     FAIR      50  37  62 N8        30.32S
WADENA         SUNNY     48  34  57 NE8       30.31S
DETROIT LAKES  SUNNY     50  32  50 CALM      30.34S
MOORHEAD       SUNNY     46  36  66 N15       30.38S
FERGUS FALLS   SUNNY     50  34  53 N9G17     30.34S
MORRIS MN      SUNNY     54  39  58 N10G18    30.31S
STAPLES        SUNNY     50  30  46 NE6       30.31S
$$
  *****  WEATHER ELSEWHERE ACROSS MINNESOTA  *****

CITY           SKY/WX    TMP DP  RH WIND       PRES   REMARKS
DULUTH         MOSUNNY   51  33  50 N12       30.27S
INTRNTL FALLS  SUNNY     44  27  51 VRB6G17   30.36S
ELY            NOT AVBL
CLOQUET        SUNNY     54  28  37 N9G18     30.28S
WHEATON        SUNNY     48  37  66 N13G21    30.36S
BRAINERD       SUNNY     50  33  52 MISG      30.31R
HIBBING        SUNNY     49  27  42 N13       30.31S
ALEXANDRIA     SUNNY     50  34  54 N7        30.31S
SAINT CLOUD    SUNNY     53  37  54 N12       30.27S
MINNEAPOLIS    PTSUNNY   58  42  55 N13       30.24R
$$

  *****  WEATHER ACROSS SOUTH DAKOTA  *****

CITY           SKY/WX    TMP DP  RH WIND       PRES   REMARKS
SIOUX FALLS    PTSUNNY   55  44  66 N9        30.29R
BROOKINGS      MOSUNNY   50  39  66 NE12      30.31S
WATERTOWN      SUNNY     53  38  56 N12       30.31S
HURON          SUNNY     54  37  52 N13G20    30.33S
SISSETON         N/A     48  39  71 N14       30.34S
ABERDEEN       SUNNY     49  32  52 N14       30.36F
MITCHELL       SUNNY     55  40  56 N9        30.32S
PIERRE         SUNNY     52  37  56 NE8       30.33F
MOBRIDGE       SUNNY     52  34  50 VRB6      30.33F
RAPID CITY     PTSUNNY   55  42  61 SE20G26   30.26F
$$

  *****  SOME WEATHER IN NEARBY STATES *****

CITY           SKY/WX    TMP DP  RH WIND       PRES   REMARKS
GLASGOW MT     CLOUDY    62  40  44 E21G30    30.12F
GREAT FALLS MT LGT RAIN  59  50  72 W3        30.03R
CHEYENNE WY    SUNNY     60  42  51 VRB6      30.28S
SCOTTSBLUFF NE PTSUNNY   58  49  72 SE12      30.27S
OMAHA NE       PTSUNNY   58  47  66 N18G25    30.19R
DES MOINES IA  DRIZZLE   59  52  77 N12       30.12R
DAVENPORT IA   CLOUDY    67  63  87 N16       30.00R
CHICAGO IL     LGT RAIN  52  51  97 N15       30.03R
EAU CLAIRE WI  CLOUDY    55  45  68 N9        30.20R
LA CROSSE WI   CLOUDY    58  51  78 N13       30.15R
$$

  *****  SOME NATIONAL WEATHER *****

CITY           SKY/WX    TMP DP  RH WIND       PRES   REMARKS
LA GUARDIA NY  MOSUNNY   81  64  56 S15       30.15F
RALEIGH NC     PTSUNNY   81  66  60 S6        30.20F
ATLANTA GA     PTSUNNY   82  64  54 SE8       30.17F
NEW ORLEANS LA PTSUNNY   86  71  60 W14       30.07S THUNDER HX  91
OKLAHOMA CITY  CLOUDY    63  53  70 N14       30.18R
ALBUQUERQUE NM MOSUNNY   70  44  39 SE9G18    30.29F
SALT LAKE CITY PTSUNNY   73  43  33 S16       30.11S
LOS ANGELES CA CLOUDY    61  57  88 W5        29.98S FOG
BOISE ID       CLOUDY    74  47  38 N9        29.96S
SEATTLE WA     PTSUNNY   56  46  69 SW7       29.98F
$$

*** WEATHER ACROSS MANITOBA...SASKATCHEWAN AND ONTARIO ***
                ***ONTARIO***

CITY           SKY/WX    TMP DP  RH WIND       PRES   REMARKS
GERALDTON      PTSUNNY   41  32  70 NW14G24   30.25R
THUNDER BAY    MOSUNNY   50  27  40 NW9G20    30.30R
SIOUX LOOKOUT  MOSUNNY   41  25  52 N10       30.37R
TORONTO        LGT RAIN  79  68  69 W13G18    29.91F
BIG TROUT LK   CLOUDY    28  25  86 NW10G18   30.37R WCI  19
PICKLE LAKE    CLOUDY    37  23  56 VRB6G20   30.34R
DRYDEN         SUNNY     43  23  45 W5        30.37R
KENORA         MOSUNNY   45  25  45 NE7       30.38S
$$
                *** MANITOBA***

CITY           SKY/WX    TMP DP  RH WIND       PRES   REMARKS
BRANDON        PTSUNNY   46  28  49 S8        30.43F
DAUPHIN        SUNNY     46  28  49 E8        30.42F
ISLAND LAKE    PTSUNNY   36  23  60 W3        30.43S
PILOT MOUND      N/A     43  25  49 NE5         N/A
THE PAS        MOSUNNY   48  21  34 S9        30.38F
THOMPSON       MOSUNNY   52  25  35 SW17      30.30F
WINNIPEG       MOSUNNY   45  27  49 N12       30.45F
LYNN LAKE      PTSUNNY   54  23  30 W13G18    30.23F
CHURCHILL      PTSUNNY   46  25  42 W10       30.15F
GILLAM         SUNNY     41  27  56 W13G21    30.30
$$
                ***SASKATCHEWAN***

CITY           SKY/WX    TMP DP  RH WIND       PRES   REMARKS
ESTEVAN        CLOUDY    50  30  46 SE18G24   30.32F
KINDERSLEY     PTSUNNY   55  32  41 E18       30.15F
LLOYDMINSTER   MOSUNNY   57  25  28 S20G26    30.16F
PRINCE ALBERT  PTSUNNY   54  28  37 S13       30.31F
REGINA         PTSUNNY   48  32  53 SE21      30.30F
YORKTON        MOSUNNY   48  25  40 S9        30.37F
N. BATTLEFORD  SUNNY     57  23  26 SE17G23   30.24F
LA RONGE       SUNNY     55  28  35 SE9       30.27
SASKATOON      PTSUNNY   55  32  41 SE17      30.27F
SWIFT CURRENT  CLOUDY    55  34  44 SE20G28   30.13F
$$
NOTE: THESE ARE AUTOMATED STATIONS WITH LIMITED QUALITY CONTROL
      "FAIR" INDICATES FEW OR NO CLOUDS BELOW 12,000 FEET WITH NO
      SIGNIFICANT WEATHER AND/OR OBSTRUCTIONS TO VISIBILITY.
      SKY/WX - SKY CONDITION AND SIGNIFICANT WEATHER.
      TMP - AIR TEMPERATURE.    DP   - DEWPOINT TEMPERATURE.
      RH  - RELATIVE HUMIDITY.  PRES - PRESSURE.
      HX  - HEAT INDEX.         WCI  - WIND CHILL INDEX.
$



USA.gov is the U.S. government's official web portal to all federal, state and local government web resources and services.